Flag for Germany Weather past 2 weeks in Alsdorf, North Rhine-Westphalia, Germany

Now
55 °F

Scattered clouds.


Feels Like: 53 °F
Forecast: 52 / 63 °F
Wind: 10 mph from Southwest

Location: Maastricht Airport Zuid Limburg

Current Time: Apr 25, 2015 at 11:19:41 AM

Latest Report: Apr 25, 2015 at 10:55 AM


Visibility: 4 mi

Pressure: 29.77 "Hg

Humidity: 88%

Dew point: 52 °F

Location of AlsdorfLocation

Historic Weather in Alsdorf — Graph

°F

Alsdorf temperature yesterday

Maximum temperature yesterday: 72 °F (at 5:25 PM)
Minimum temperature yesterday: 43 °F (at 3:55 AM)
Average temperature yesterday: 58 °F

Past Weeks' High & Low Weather Summary

 TemperatureHumidityPressure
High75 °F (Apr 15, 3:55 PM)100% (Apr 19, 6:55 AM)30.48 "Hg (Apr 19, 6:55 AM)
Low34 °F (Apr 18, 6:25 AM)28% (Apr 10, 2:25 PM)29.80 "Hg (Apr 24, 8:55 PM)
Average53 °F64%30.18 "Hg
* Reported Apr 10 9:25 AM — Apr 25 9:55 AM, Alsdorf, Weather by CustomWeather, © 2015

Note: Actual official high and low records may vary slightly from our data, if they occured in-between our weather recording intervals... More about our weather records

Advertising

Alsdorf weather history for previous 24 hours

 ConditionsComfort  
Time TempWeatherWind HumidityBarometerVisibility
9:55 AM
Sat, Apr 25
54 °FPassing clouds.7 mph88%29.80 "Hg5 mi
9:25 AM52 °FClear.8 mph94%29.80 "HgN/A
8:55 AM52 °FOvercast.8 mph88%29.80 "Hg4 mi
8:25 AM50 °FDrizzle. Mostly cloudy.7 mph94%29.80 "Hg3 mi
7:55 AM50 °FDrizzle. Mostly cloudy.6 mph94%29.80 "Hg4 mi
7:25 AM50 °FDrizzle. Mostly cloudy.3 mph94%29.80 "Hg3 mi
6:55 AM52 °FPartly cloudy.8 mph94%29.80 "Hg3 mi
6:25 AM52 °FPassing clouds.6 mph94%29.80 "Hg3 mi
5:55 AM52 °FClear.3 mph88%29.80 "Hg4 mi
5:25 AM52 °FPassing clouds.8 mph88%29.80 "Hg4 mi
4:55 AM54 °FOvercast.13 mph77%29.80 "Hg6 mi
4:25 AM54 °FOvercast.6 mph82%29.80 "HgN/A
3:55 AM54 °FClear.6 mph77%29.80 "HgN/A
3:25 AM55 °FClear.6 mph77%29.80 "Hg6 mi
2:55 AM55 °FHaze.3 mph82%29.80 "Hg3 mi
2:25 AM57 °FHaze.5 mph72%29.80 "Hg3 mi
1:55 AM57 °FClear.6 mph72%29.80 "Hg4 mi
1:25 AM59 °FClear.6 mph77%29.83 "HgN/A
12:55 AM57 °FClear.6 mph88%29.83 "HgN/A
12:25 AM57 °FClear.7 mph88%29.83 "HgN/A
11:55 PM
Fri, Apr 24
59 °FPassing clouds.6 mph82%29.83 "HgN/A
11:25 PM59 °FLight rain. Passing clouds.6 mph77%29.83 "HgN/A
10:55 PM64 °FPassing clouds.12 mph56%29.83 "HgN/A
10:25 PM63 °FClear.7 mph56%29.83 "HgN/A
9:55 PM64 °FClear.6 mph52%29.83 "HgN/A
9:25 PM64 °FClear.7 mph52%29.83 "HgN/A
8:55 PM64 °FClear.6 mph52%29.80 "HgN/A
8:25 PM66 °FClear.6 mph46%29.83 "HgN/A
7:55 PM68 °FClear.7 mph43%29.83 "HgN/A
7:25 PM68 °FClear.7 mph43%29.83 "HgN/A
6:55 PM68 °FClear.8 mph40%29.83 "HgN/A
6:25 PM70 °FClear.14 mph35%29.83 "HgN/A
5:55 PM70 °FMild.12 mph38%29.83 "HgN/A
5:25 PM72 °FClear.9 mph38%29.83 "HgN/A
4:55 PM70 °FClear.10 mph40%29.86 "HgN/A
4:25 PM70 °FClear.8 mph40%29.86 "HgN/A
3:55 PM70 °FMild.12 mph35%29.86 "HgN/A
3:25 PM70 °FClear.9 mph38%29.89 "HgN/A
2:55 PM68 °FMild.10 mph38%29.89 "HgN/A
2:25 PM68 °FMild.12 mph35%29.89 "HgN/A
1:55 PM66 °FClear.14 mph37%29.92 "HgN/A
1:25 PM64 °FClear.12 mph40%29.92 "HgN/A
12:55 PM66 °FMild.13 mph40%29.92 "HgN/A
12:25 PM64 °FClear.12 mph46%29.92 "Hg5 mi
11:55 AM63 °FMild.10 mph49%29.95 "Hg4 mi
11:25 AM61 °FClear.6 mph55%29.95 "Hg4 mi
Weather by CustomWeather, © 2015

See weather overviewHow to use our weather pages